[[{"header":{"parameterUnit":"m.s-1","parameterCategory":1,"la1":30.2991,"la2":30.254,"lo1":-89.0895,"lo2":-89.0444,"dy":0.0017,"dx":0.0017,"nx":28,"ny":28,"refTime":"2024-07-31T09:00:00:Z","depth":0,"parameterNumber":2,"parameterNumberName":"U-component_of_WINDS"},"data":[0,0,0,0,0,0,0,0,0,0,0,0,0,0,0,0,0,0,0,0,0,0,0,0,0,0,0,0,0,0,0,0,0,0,0,0,0,0,0,0,0,0,0,0,0,0,0,0,0,0,0,0,0,0,0,0,0,0,0.4518,0.452,0,0.4631,0.4632,0.4633,0.4638,0.4636,0.4635,0.4634,0.4751,0.4756,0.476,0,0,0,0,0,0,0,0,0,0,0,0,0,0.4309,0.4313,0.4518,0.452,0.4521,0.463,0.4632,0.4634,0.4638,0.4636,0.4635,0.4633,0.475,0.4755,0.476,0,0,0,0,0,0,0,0,0,0,0,0,0,0.4409,0.4314,0.4518,0.4536,0.4539,0.463,0.4632,0.4634,0.4638,0.4636,0.4634,0.4632,0.4748,0.4755,0.4761,0.4842,0,0,0.4781,0.4784,0,0,0,0,0,0,0,0,0.4403,0.4416,0.4532,0.4535,0.4539,0.4618,0.4601,0.4704,0.4639,0.4601,0.4634,0.4631,0.4709,0.4719,0.4744,0.4848,0.4853,0.4782,0.4786,0.4789,0.479,0,0,0,0,0,0,0,0.4396,0.4412,0.4563,0.4534,0.4538,0.454,0.4551,0.4621,0.4665,0.4604,0.4605,0.4618,0.471,0.4738,0.4747,0.4854,0.4782,0.4787,0.4792,0.4794,0.5028,0.503,0,0,0,0,0,0,0.4385,0.4406,0.4559,0.4566,0.4464,0.4545,0.4558,0.4595,0.4664,0.4673,0.4619,0.4617,0.4728,0.4739,0.4751,0.4849,0.4789,0.4795,0.4799,0.5026,0.5028,0.5031,0,0,0,0,0,0,0.4381,0.4399,0.4555,0.4486,0.4506,0.4551,0.4592,0.4598,0.4625,0.4676,0.4684,0.4639,0.4726,0.4742,0.4819,0.4853,0.4798,0.4804,0.5023,0.5027,0.503,0.5047,0,0,0,0,0,0,0.4375,0.4397,0.4428,0.4487,0.451,0.462,0.4594,0.4602,0.4636,0.4635,0.4696,0.4705,0.4726,0.4809,0.4825,0.4861,0.4809,0.502,0.5025,0.5029,0.5043,0.505,0.5056,0,0,0,0,0,0.4367,0.443,0.443,0.4448,0.4549,0.4622,0.4636,0.4658,0.4639,0.4671,0.4703,0.4703,0.4847,0.4817,0.4835,0.4874,0.5018,0.5023,0.5028,0.504,0.5049,0.5056,0,0,0,0,0,0,0.4376,0.4438,0.4439,0.4522,0.4566,0.4623,0.4664,0.4667,0.4718,0.4715,0.4742,0.4755,0.4831,0.4861,0.4826,0.4955,0.493,0.4939,0.4933,0.4942,0.4948,0.4939,0.4814,0,0,0,0,0,0.4387,0.444,0.4492,0.456,0.4582,0.4619,0.4652,0.4665,0.4713,0.4732,0.477,0.4817,0.4872,0.4909,0.4963,0.5047,0.506,0.5083,0.5089,0.5094,0.5102,0.5147,0.5158,0.5048,0.5048,0.5048,0,0,0.4411,0.4451,0.4484,0.4563,0.4599,0.4654,0.4635,0.4694,0.4735,0.4741,0.4816,0.4845,0.4899,0.498,0.5017,0.5006,0.5135,0.5101,0.5105,0.511,0.5154,0.5164,0.5173,0.5051,0.5051,0.505,0,0,0.4483,0.4519,0.4579,0.4615,0.467,0.4694,0.4708,0.4764,0.4783,0.4858,0.4863,0.4912,0.5008,0.5046,0.5078,0.5162,0.5163,0.5179,0.5213,0.5257,0.5265,0.5273,0.5302,0.5312,0.5186,0.5186,0.5186,0,0.4506,0.4589,0.461,0.4669,0.4703,0.4709,0.477,0.4805,0.4875,0.4898,0.4885,0.5004,0.5041,0.5129,0.515,0.5176,0.5192,0.5172,0.5262,0.527,0.5278,0.5306,0.5317,0.5188,0.5187,0.5187,0.5187,0,0.4614,0.4671,0.4713,0.4779,0.4818,0.4878,0.4908,0.4945,0.4954,0.4979,0.5055,0.5099,0.5161,0.5184,0.5194,0.5274,0.5265,0.5257,0.5232,0.5289,0.5316,0.5327,0.519,0.5189,0.5189,0.5188,0,0,0.4695,0.4771,0.4786,0.4815,0.4875,0.492,0.4979,0.5039,0.507,0.5117,0.5168,0.5247,0.5239,0.5276,0.529,0.5329,0.5391,0.5316,0.5317,0.5327,0.548,0.5485,0.5497,0.5392,0.5394,0.5396,0.5475,0,0.4773,0.4878,0.4899,0.499,0.5042,0.5048,0.51,0.5143,0.5167,0.5215,0.5243,0.5299,0.5285,0.5306,0.5344,0.5375,0.5422,0.537,0.5439,0.5441,0.5425,0.5512,0.5518,0.559,0.5486,0.5488,0.5489,0,0.4878,0.4927,0.5023,0.5074,0.5097,0.5143,0.5199,0.5245,0.5293,0.5308,0.5347,0.5357,0.5419,0.5391,0.5477,0.5441,0.547,0.5489,0.5493,0.55,0.5468,0.552,0.5614,0.5625,0.5506,0.5504,0.5503,0,0.4927,0.5016,0.5085,0.511,0.5172,0.5204,0.5231,0.5277,0.5311,0.536,0.5382,0.5438,0.5469,0.5512,0.5536,0.5514,0.5619,0.5594,0.5633,0.5632,0.5655,0.5653,0.5754,0.5675,0.5674,0.5674,0.5674,0,0.5011,0.507,0.5107,0.515,0.5215,0.5237,0.5302,0.5329,0.5369,0.5417,0.5426,0.547,0.55,0.5549,0.5568,0.5635,0.5649,0.5663,0.5667,0.5662,0.566,0.5681,0.5677,0.5677,0.5677,0.5676,0.5675,0,0.5076,0.5104,0.5179,0.5231,0.5245,0.5291,0.5335,0.5377,0.54,0.546,0.5476,0.5514,0.5571,0.56,0.5672,0.5685,0.576,0.5762,0.5744,0.5745,0.5782,0.5778,0.59,0.5916,0.5827,0.5828,0.5828,0,0.5128,0.5173,0.5229,0.5261,0.5288,0.534,0.5375,0.5398,0.5434,0.5491,0.5525,0.5582,0.563,0.5721,0.5756,0.581,0.5813,0.5852,0.5821,0.5814,0.5812,0.5809,0.5813,0.5857,0.5858,0.5859,0.5859,0,0.5217,0.5228,0.5276,0.533,0.537,0.5414,0.5456,0.5482,0.5513,0.5552,0.561,0.5647,0.5719,0.5776,0.5833,0.5861,0.5865,0.5868,0.588,0.5875,0.5862,0.5868,0.5758,0.5866,0.5865,0.5865,0.5864,0.5864,0.5276,0.5316,0.5361,0.5414,0.5449,0.5488,0.5529,0.5557,0.5606,0.5666,0.5677,0.5739,0.5784,0.586,0.5891,0.5939,0.593,0.5948,0.5952,0.5956,0.5957,0.5854,0.595,0.5949,0.5949,0.5949,0.5949,0,0.5364,0.5393,0.5442,0.5501,0.5543,0.5542,0.5589,0.5624,0.5678,0.572,0.5765,0.5832,0.5886,0.5924,0.598,0.6011,0.6014,0.6025,0.6022,0.6028,0.5962,0.5946,0.6021,0.6021,0.6021,0.6021,0.6021,0.6021,0.5415,0.5481,0.5497,0.558,0.5609,0.5669,0.5695,0.5731,0.5765,0.5838,0.5883,0.5907,0.5947,0.6005,0.6055,0.6064,0.6084,0.6095,0.6104,0.6041,0.6033,0.6026,0.6011,0.6099,0.6099,0.6166,0.6167,0.6167]},{"header":{"parameterUnit":"m.s-1","parameterCategory":1,"la1":30.2991,"la2":30.254,"lo1":-89.0895,"lo2":-89.0444,"dy":0.0017,"dx":0.0017,"nx":28,"ny":28,"refTime":"2024-07-31T09:00:00:Z","depth":0,"parameterNumber":3,"parameterNumberName":"V-component_of_WINDS"},"data":[0,0,0,0,0,0,0,0,0,0,0,0,0,0,0,0,0,0,0,0,0,0,0,0,0,0,0,0,0,0,0,0,0,0,0,0,0,0,0,0,0,0,0,0,0,0,0,0,0,0,0,0,0,0,0,0,0,0,2.1813,2.1813,0,2.1831,2.1831,2.1831,2.1848,2.1849,2.1849,2.1849,2.1865,2.1865,2.1865,0,0,0,0,0,0,0,0,0,0,0,0,0,2.1787,2.1787,2.1813,2.1813,2.1813,2.1831,2.1831,2.1831,2.1848,2.1849,2.1849,2.1849,2.1865,2.1865,2.1865,0,0,0,0,0,0,0,0,0,0,0,0,0,2.1801,2.1788,2.1813,2.1824,2.1825,2.1831,2.1831,2.1831,2.1848,2.1849,2.1849,2.1849,2.1864,2.1865,2.1865,2.186,0,0,2.1866,2.1866,0,0,0,0,0,0,0,0,2.18,2.1802,2.1822,2.1823,2.1824,2.1838,2.1828,2.1841,2.1848,2.1839,2.1849,2.1849,2.1855,2.1856,2.1859,2.1861,2.1862,2.1866,2.1866,2.1866,2.1866,0,0,0,0,0,0,0,2.1799,2.1801,2.182,2.1822,2.1824,2.1826,2.1828,2.183,2.1845,2.184,2.1841,2.1844,2.1856,2.1859,2.1859,2.1862,2.1866,2.1866,2.1866,2.1867,2.1857,2.1857,0,0,0,0,0,0,2.1797,2.18,2.1819,2.182,2.1813,2.1826,2.1829,2.1833,2.1845,2.1847,2.1843,2.1844,2.1858,2.1859,2.186,2.1853,2.1866,2.1867,2.1867,2.1857,2.1857,2.1856,0,0,0,0,0,0,2.1796,2.1799,2.1818,2.1811,2.1813,2.1826,2.1831,2.1833,2.1836,2.1848,2.185,2.1844,2.1858,2.186,2.1859,2.1854,2.1867,2.1867,2.1858,2.1857,2.1857,2.184,0,0,0,0,0,0,2.1796,2.1798,2.1798,2.1811,2.1814,2.1819,2.1831,2.1833,2.1837,2.1838,2.1848,2.185,2.1859,2.1859,2.186,2.1854,2.1867,2.1858,2.1858,2.1857,2.1841,2.1839,2.1837,0,0,0,0,0,2.1795,2.1793,2.1798,2.18,2.1814,2.1819,2.1821,2.1831,2.1836,2.1835,2.1842,2.185,2.1854,2.1859,2.186,2.1854,2.1859,2.1858,2.1857,2.1842,2.1839,2.1837,0,0,0,0,0,0,2.178,2.1795,2.1801,2.1803,2.181,2.1822,2.1821,2.1828,2.1833,2.1834,2.1845,2.1847,2.1845,2.185,2.1855,2.1848,2.1857,2.1857,2.1846,2.1843,2.1841,2.1839,2.1868,0,0,0,0,0,2.1776,2.1781,2.1793,2.1794,2.1797,2.1808,2.1811,2.1818,2.1825,2.1827,2.1834,2.1839,2.1841,2.1843,2.1845,2.1842,2.1842,2.1838,2.1836,2.1834,2.1833,2.1828,2.1825,2.1853,2.1853,2.1853,0,0,2.177,2.1779,2.1781,2.1791,2.1797,2.1799,2.1811,2.1813,2.1814,2.1827,2.1827,2.1832,2.1838,2.1835,2.1835,2.1839,2.1825,2.1833,2.1831,2.1831,2.1827,2.1824,2.1822,2.1852,2.1853,2.1853,0,0,2.176,2.1768,2.1768,2.1773,2.1782,2.1789,2.1788,2.1799,2.1803,2.1803,2.1812,2.1812,2.1817,2.182,2.1822,2.1808,2.1814,2.1809,2.1797,2.1792,2.179,2.1788,2.1781,2.1778,2.1808,2.1807,2.1807,0,2.1751,2.1756,2.1767,2.1768,2.1771,2.1783,2.1782,2.1786,2.1794,2.1795,2.18,2.1803,2.1809,2.1805,2.1801,2.1804,2.1801,2.1807,2.179,2.1788,2.1786,2.1779,2.1776,2.1807,2.1807,2.1807,2.1807,0,2.1743,2.1746,2.1744,2.1752,2.1755,2.1755,2.1764,2.1765,2.177,2.1776,2.1774,2.178,2.1783,2.1783,2.1789,2.1779,2.1781,2.1788,2.1797,2.1782,2.1776,2.1773,2.1805,2.1806,2.1806,2.1806,0,0,2.1726,2.1737,2.1737,2.1739,2.1747,2.1749,2.1747,2.175,2.1749,2.1754,2.1751,2.1753,2.1758,2.176,2.1767,2.1762,2.1747,2.1769,2.1769,2.1763,2.1733,2.1727,2.1724,2.1752,2.1751,2.1751,2.1732,0,2.1715,2.1716,2.1724,2.1721,2.1721,2.1731,2.1729,2.1733,2.1737,2.1737,2.1741,2.1741,2.1749,2.175,2.1746,2.175,2.1741,2.1752,2.1747,2.1747,2.1744,2.1721,2.1715,2.1697,2.1729,2.1729,2.1729,0,2.1705,2.1708,2.1704,2.171,2.171,2.1709,2.171,2.1711,2.1713,2.1716,2.1717,2.1723,2.172,2.1728,2.1722,2.1729,2.1727,2.1728,2.1727,2.1726,2.1736,2.1717,2.1691,2.1688,2.1725,2.1726,2.1726,0,2.169,2.1693,2.1691,2.1692,2.1699,2.1697,2.17,2.1703,2.1703,2.1703,2.1703,2.1703,2.1702,2.1701,2.1706,2.1712,2.1697,2.1707,2.1697,2.1697,2.1693,2.1693,2.1665,2.1695,2.1695,2.1695,2.1695,0,2.1677,2.1674,2.1684,2.1682,2.1678,2.1686,2.1681,2.1684,2.1686,2.1683,2.1691,2.1688,2.1695,2.1692,2.1696,2.1687,2.1688,2.1688,2.1689,2.1687,2.1686,2.1685,2.1686,2.1694,2.1694,2.1694,2.1695,0,2.1661,2.1667,2.1664,2.167,2.1671,2.1667,2.1671,2.1668,2.1672,2.1668,2.1667,2.1672,2.1668,2.1673,2.167,2.1672,2.166,2.1664,2.166,2.166,2.1649,2.1649,2.1618,2.1612,2.1647,2.1647,2.1647,0,2.1652,2.165,2.1654,2.1653,2.1655,2.1653,2.1652,2.1659,2.1658,2.1658,2.1654,2.1651,2.1649,2.1642,2.1644,2.164,2.1643,2.1632,2.1642,2.1639,2.164,2.1639,2.1637,2.1629,2.1629,2.1629,2.1628,0,2.1635,2.1637,2.1637,2.1636,2.1635,2.1635,2.1635,2.1633,2.1639,2.1637,2.1633,2.1631,2.1626,2.1622,2.1618,2.1618,2.1623,2.1625,2.1622,2.1619,2.1616,2.1615,2.1652,2.1626,2.1626,2.1626,2.1626,2.1626,2.1621,2.1618,2.162,2.1617,2.1618,2.1617,2.1613,2.1615,2.1613,2.161,2.1613,2.1607,2.1606,2.1601,2.16,2.1594,2.1598,2.1595,2.1594,2.1592,2.1589,2.1617,2.1594,2.1594,2.1594,2.1594,2.1594,0,2.1603,2.1603,2.1601,2.1601,2.1598,2.1603,2.1602,2.1599,2.1594,2.1592,2.1589,2.1582,2.1577,2.1577,2.1572,2.1566,2.1568,2.1564,2.1564,2.1563,2.1587,2.1589,2.1563,2.1563,2.1563,2.1563,2.1563,2.1563,2.1593,2.1587,2.1589,2.1581,2.1582,2.1576,2.1575,2.1573,2.1571,2.1563,2.1559,2.1559,2.1557,2.1551,2.1544,2.1545,2.1541,2.1536,2.1536,2.1559,2.1562,2.1565,2.1567,2.1536,2.1536,2.1512,2.1512,2.1512]}]]